CW3467 Sant Marti de Canals ES current weather conditions

sailwx.info

Wind from 113

Air temperature 12.8° C
Dewpoint 10.1° C

Last reported at 2014-Oct-21 07:44 UTC.
Time now 2014-Oct-21 08:45 UTC

Location: N 42°14' E 000°59'.
View on Google Maps.

See reports from other nearby stations

  
Tides and Currents Weather Stations Pressure Air Temp Water Temp Dewpoint Dewpoint Depression Visibility Wind Speed Wind Dir Waves Ship Positions
date/time (UTC)wind fromknots sea level pressurealtimeterstation pressurevisibilityair tempwater tempwave heightnotes
2014-Oct-21 07:44 113 12.8
2014-Oct-21 07:28 110 12.8
2014-Oct-21 07:13 125 11.7
2014-Oct-21 06:58 100 11.1
2014-Oct-21 06:43 094 11.1
2014-Oct-21 06:28 049 10.6
2014-Oct-21 06:13 112 11.1
2014-Oct-21 05:58 107 11.1
2014-Oct-21 05:43 107 11.1
2014-Oct-21 05:28 131 11.7
2014-Oct-21 05:13 096 11.7
2014-Oct-21 04:58 098 11.7
2014-Oct-21 04:43 098 11.7
2014-Oct-21 04:28 101 11.7
2014-Oct-21 04:13 100 12.2
2014-Oct-21 03:58 100 12.2
2014-Oct-21 03:43 098 12.2
2014-Oct-21 03:28 103 12.2
2014-Oct-21 03:13 103 12.8
2014-Oct-21 02:58 083 12.8
2014-Oct-21 02:43 072 12.8
2014-Oct-21 02:28 051 12.8
2014-Oct-21 02:13 049 13.3
2014-Oct-21 01:58 084 1 gusting 1 12.8
2014-Oct-21 01:43 109 13.3
2014-Oct-21 01:28 115 13.3
2014-Oct-21 01:13 130 13.3
2014-Oct-21 00:58 133 13.9
2014-Oct-21 00:43 126 13.9
2014-Oct-21 00:28 126 0 gusting 2 13.9
2014-Oct-21 00:13 117 13.9
2014-Oct-20 23:58 067 14.4
2014-Oct-20 23:43 115 14.4
2014-Oct-20 23:28 091 15.0
2014-Oct-20 23:13 084 14.4
2014-Oct-20 22:58 076 15.0
2014-Oct-20 22:43 075 15.0
2014-Oct-20 22:28 075 15.0
2014-Oct-20 22:13 075 15.0
2014-Oct-20 21:58 082 15.6
2014-Oct-20 21:43 314 16.1
2014-Oct-20 21:28 079 1 16.1
2014-Oct-20 21:13 098 0 gusting 1 16.1
2014-Oct-20 20:58 115 0 gusting 1 16.1
2014-Oct-20 20:43 072 16.7
2014-Oct-20 20:28 096 16.7
2014-Oct-20 20:15 044 16.7
2014-Oct-20 19:58 239 17.2
2014-Oct-20 19:43 089 17.8
2014-Oct-20 19:28 101 0 gusting 2 17.8
2014-Oct-20 19:13 134 18.3
2014-Oct-20 18:58 158 18.3
2014-Oct-20 18:43 108 0 gusting 1 18.3
2014-Oct-20 18:28 128 18.9
2014-Oct-20 18:13 132 0 gusting 1 19.4
2014-Oct-20 17:58 099 0 gusting 1 19.4
2014-Oct-20 17:43 128 20.0
2014-Oct-20 17:28 115 21.1
2014-Oct-20 17:13 061 21.7
2014-Oct-20 16:58 078 22.2
2014-Oct-20 16:43 019 23.3
2014-Oct-20 16:27 019 23.3
2014-Oct-20 16:12 278 23.9
2014-Oct-20 15:57 236 25.0
2014-Oct-20 15:42 270 25.0
2014-Oct-20 15:27 256 26.1
2014-Oct-20 15:12 222 26.1
2014-Oct-20 14:57 211 26.7
2014-Oct-20 14:42 235 26.1
2014-Oct-20 14:27 231 26.1
2014-Oct-20 14:12 269 26.1
2014-Oct-20 13:57 228 25.6
2014-Oct-20 13:42 229 25.0
2014-Oct-20 13:27 253 25.0
2014-Oct-20 13:12 263 24.4
2014-Oct-20 12:57 216 24.4
2014-Oct-20 12:42 238 0 gusting 2 23.9
2014-Oct-20 12:27 141 0 gusting 3 23.9
2014-Oct-20 12:12 219 23.3
2014-Oct-20 11:57 201 22.2
2014-Oct-20 11:42 219 21.7
2014-Oct-20 11:27 145 21.1
2014-Oct-20 11:12 178 21.1
2014-Oct-20 10:57 138 0 gusting 3 20.6
2014-Oct-20 10:42 219 20.0
2014-Oct-20 10:26 150 18.9
2014-Oct-20 10:11 225 18.3
2014-Oct-20 09:56 115 1 gusting 4 17.8
2014-Oct-20 09:41 137 0 gusting 3 17.2
2014-Oct-20 09:26 173 1 gusting 3 17.2
2014-Oct-20 09:11 207 0 gusting 2 17.2
2014-Oct-20 08:56 191 16.7
2014-Oct-20 08:41 188 16.1
2014-Oct-20 08:26 177 16.1
2014-Oct-20 08:11 096 13.9
2014-Oct-20 07:56 096 12.8
2014-Oct-20 07:41 096 12.8
2014-Oct-20 07:26 096 13.3
2014-Oct-20 07:11 096 12.8
2014-Oct-20 06:56 096 12.8
2014-Oct-20 06:41 096 12.2
2014-Oct-20 06:26 107 12.2
2014-Oct-20 06:11 105 12.8
2014-Oct-20 05:56 098 12.2
2014-Oct-20 05:41 098 12.8
2014-Oct-20 05:26 100 12.8
2014-Oct-20 05:11 110 12.8
2014-Oct-20 04:56 110 12.8
2014-Oct-20 04:41 110 13.3
2014-Oct-20 04:26 114 13.3
2014-Oct-20 04:11 101 13.3
2014-Oct-20 03:56 098 13.3
2014-Oct-20 03:41 131 13.9
2014-Oct-20 03:26 098 13.9
2014-Oct-20 03:11 115 13.9
2014-Oct-20 02:56 108 13.9
2014-Oct-20 02:41 098 13.9
2014-Oct-20 02:26 098 13.9
2014-Oct-20 02:11 097 14.4
2014-Oct-20 01:56 105 14.4
2014-Oct-20 01:41 105 14.4
2014-Oct-20 01:26 101 14.4
2014-Oct-20 01:11 110 14.4
2014-Oct-20 00:56 110 15.0
2014-Oct-20 00:41 125 15.0
2014-Oct-20 00:26 359 15.0
2014-Oct-20 00:10 109 15.6
2014-Oct-19 23:55 118 15.6
2014-Oct-19 23:40 107 15.6
2014-Oct-19 23:25 288 15.6
2014-Oct-19 23:10 096 15.6
2014-Oct-19 22:55 134 15.6
2014-Oct-19 22:40 089 15.6
2014-Oct-19 22:25 089 16.1
2014-Oct-19 22:10 061 16.1
2014-Oct-19 21:55 061 16.1
2014-Oct-19 21:40 068 16.1
2014-Oct-19 21:25 066 16.7
2014-Oct-19 21:10 068 16.7
2014-Oct-19 20:55 086 16.7
2014-Oct-19 20:40 086 17.2
2014-Oct-19 20:25 084 17.8
2014-Oct-19 20:10 069 17.2
2014-Oct-19 19:55 266 17.8
2014-Oct-19 19:40 084 17.8
2014-Oct-19 19:25 016 18.3
2014-Oct-19 19:10 028 18.3
2014-Oct-19 18:55 084 18.9
2014-Oct-19 18:40 103 18.9
2014-Oct-19 18:25 145 18.9
2014-Oct-19 18:10 090 19.4
2014-Oct-19 17:55 070 20.0
2014-Oct-19 17:40 124 20.6
2014-Oct-19 17:25 052 21.1
2014-Oct-19 17:10 229 21.7
2014-Oct-19 16:55 228 22.8
2014-Oct-19 16:40 228 25.0
2014-Oct-19 16:25 228 26.1
2014-Oct-19 16:10 228 26.7
2014-Oct-19 15:55 231 27.2
2014-Oct-19 15:40 213 26.7
2014-Oct-19 15:25 223 26.7
2014-Oct-19 15:10 218 27.2
2014-Oct-19 14:55 138 25.6
2014-Oct-19 14:40 210 25.0
2014-Oct-19 14:25 225 25.0
2014-Oct-19 14:10 221 26.7
2014-Oct-19 13:55 200 26.7
2014-Oct-19 13:40 134 25.0
2014-Oct-19 13:25 216 24.4
2014-Oct-19 13:10 158 24.4
2014-Oct-19 12:55 231 23.9
2014-Oct-19 12:40 143 23.3
2014-Oct-19 12:25 191 22.8
2014-Oct-19 12:10 150 1 gusting 2 23.3
2014-Oct-19 11:55 139 0 gusting 2 22.8
2014-Oct-19 11:40 228 0 gusting 2 22.2
2014-Oct-19 11:25 211 21.7
2014-Oct-19 11:09 211 21.1
2014-Oct-19 10:54 013 20.6
2014-Oct-19 10:39 219 20.0
2014-Oct-19 10:24 201 18.9
2014-Oct-19 10:09 221 0 gusting 3 18.3
2014-Oct-19 09:54 215 0 gusting 3 18.3
2014-Oct-19 09:39 207 18.3
2014-Oct-19 09:24 190 17.8
2014-Oct-19 09:09 226 17.8
2014-Oct-19 08:54 238 17.2
2014-Oct-19 08:39 235 16.7
2014-Oct-19 08:24 165 15.0
2014-Oct-19 08:09 146 0 gusting 1 13.9